Regional Weather Roundup
Issued by NWS Grand Forks, ND

Home | Current Version | Previous Version | Text Only | Print | Product List | Glossary Off
Versions: 1 2 3 4 5 6 7 8 9 10 11 12 13 14 15 16 17 18 19 20 21 22 23 24 25 26 27 28 29 30 31 32 33 34 35 36 37 38 39 40 41 42 43 44 45 46 47 48 49 50

000
ASUS43 KFGF 261731
RWRFGF
PRAIRIE TO PINES  WEATHER ROUNDUP
NATIONAL WEATHER SERVICE EASTERN NORTH DAKOTA/GRAND FORKS ND
1200 PM CDT SUN MAR 26 2017

 **SATELLITE DATA USED TO AUGMENT SKY COVER AT AUTOMATED STATIONS**
 *****  WEATHER ACROSS EASTERN NORTH DAKOTA  *****

CITY           SKY/WX    TMP DP  RH WIND       PRES   REMARKS
GRAND FORKS    CLOUDY    39  37  92 S9        29.95R
GRAND FRKS AFB FAIR      41  37  87 S6        29.96R
DEVILS LAKE    FAIR      44  37  76 CALM      29.94R
FARGO          CLOUDY    41  38  89 S8        29.96S
WAHPETON ARPT    N/A     39  36  87 S3        29.96F
$$

 ***** WEATHER ACROSS CENTRAL AND WESTERN NORTH DAKOTA  *****

CITY           SKY/WX    TMP DP  RH WIND       PRES   REMARKS
BISMARCK       FAIR      51  38  60 W5        29.93F
MINOT          FAIR      54  36  50 CALM      29.90S
JAMESTOWN      PTSUNNY   45  38  76 CALM      29.92R
MINOT AFB      FAIR      47  39  71 NE7       29.90S
GARRISON         N/A     54  37  52 W9        29.92S
WILLISTON      FAIR      54  33  45 S5        29.90S
DICKINSON      FAIR      52  31  44 CALM      29.91S
HETTINGER      FAIR      54  36  50 VRB3      29.93S
$$

 *****  OTHER AIRPORT OBSERVATIONS IN OUR AREA  *****

CITY           SKY/WX    TMP DP  RH WIND       PRES   REMARKS
WALHALLA       NOT AVBL
GRAFTON AIRPOR FAIR      39  37  93 SW5       29.97S
VALLEY CITY AR PTSUNNY   41  41 100 SW7       29.95R
CANDO          NOT AVBL
CAVALIER APRT  FAIR      43  37  81 N8        29.95S
GWINNER        CLOUDY    43  37  81 MISG      29.94F
SHEYENNE NWR     N/A     42  36  80 S2        29.95S
ROLLA          FAIR      39  39 100 NE6       29.94R
 ***** THE ABOVE OBSERVATIONS ARE NON NWS ARE NOT QUALITY
       CONTROLLED AND MAY MIS-REPORT RAIN FOR SNOW...
$$

  *****  WEATHER ACROSS NORTHERN MINNESOTA  *****

CITY           SKY/WX    TMP DP  RH WIND       PRES   REMARKS
FLAG ISLAND    CLOUDY    34  30  86 S8        29.96F
WARROAD        PTSUNNY   41  36  81 W6        29.97R
ROSEAU         FAIR      39  34  81 W5        29.96S
HALLOCK        CLOUDY    36  34  93 S5        29.97R FOG
THF RVR FALLS  CLOUDY    39  35  86 S6        29.97
BAUDETTE       FAIR      41  33  73 S7        29.96F
WASKISH        CLOUDY    41  34  75 W3        29.96F
CROOKSTON      CLOUDY    39  37  93 SW9       29.97S
STEPHEN NDAWN    N/A     36  36 100 S9          N/A
GREENBUSH NDAW   N/A     37  34  87 S3          N/A
$$
  *****  WEATHER ACROSS CENTRAL AND WEST MINNESOTA  *****

CITY           SKY/WX    TMP DP  RH WIND       PRES   REMARKS
FOSSTON        PTSUNNY   43  36  75 SW5       29.95F
BEMIDJI        CLOUDY    39  33  76 CALM      29.96F
PARK RAPIDS    CLOUDY    40  31  70 CALM      29.95F
ELBOW LAKE     CLOUDY    40  35  80 E3        29.96F
WADENA         CLOUDY    39  32  75 N6        29.95S
DETROIT LAKES  PTSUNNY   41  32  70 CALM      29.96S
MOORHEAD       PTSUNNY   39  36  87 S7        29.96F
FERGUS FALLS   CLOUDY    43  34  70 CALM      29.99F
MORRIS MN      FAIR      45  36  70 CALM      29.94F
STAPLES        CLOUDY    37  32  81 NE6       29.95F
$$
  *****  WEATHER ELSEWHERE ACROSS MINNESOTA  *****

CITY           SKY/WX    TMP DP  RH WIND       PRES   REMARKS
DULUTH         LGT RAIN  35  33  92 NE6       29.95F
INTRNTL FALLS  CLOUDY    40  31  70 VRB3      29.97F
ELY            CLOUDY    34  30  86 CALM      29.96F
CLOQUET        DRIZZLE   34  32  93 NE5       29.94F
WHEATON        CLOUDY    39  36  87 CALM      29.98F
BRAINERD       CLOUDY    36  34  92 NE6       29.96F
HIBBING        CLOUDY    35  31  85 VRB3      29.95F
ALEXANDRIA     CLOUDY    41  33  73 N7        29.95F
SAINT CLOUD    CLOUDY    38  36  92 NE6       29.94F
MINNEAPOLIS    CLOUDY    39  35  86 NE7       29.93F
$$

  *****  WEATHER ACROSS SOUTH DAKOTA  *****

CITY           SKY/WX    TMP DP  RH WIND       PRES   REMARKS
SIOUX FALLS    CLOUDY    43  38  82 NE6       29.93S
BROOKINGS      CLOUDY    38  36  92 NE6       29.93S FOG
WATERTOWN      CLOUDY    38  35  89 NE7       29.94S
HURON          CLOUDY    42  37  82 E5        29.95S
SISSETON         N/A     40  38  93 CALM      29.95F
ABERDEEN       CLOUDY    41  35  79 CALM      29.95S
MITCHELL       CLOUDY    43  39  86 NE5       29.95S
PIERRE         CLOUDY    41  37  86 SE8       29.94R
MOBRIDGE       CLOUDY    42  36  79 CALM      29.92R
RAPID CITY     LGT RAIN  42  39  89 N16       29.93S
$$

  *****  SOME WEATHER IN NEARBY STATES *****

CITY           SKY/WX    TMP DP  RH WIND       PRES   REMARKS
GLASGOW MT     FAIR      50  27  40 NW8       29.93S
GREAT FALLS MT FAIR      48  18  30 SW16G23   29.92S
CHEYENNE WY    CLOUDY    38  36  92 N13       29.92R
SCOTTSBLUFF NE PTSUNNY   52  32  46 N14       29.91R
OMAHA NE       CLOUDY    44  38  79 W5        29.94R
DES MOINES IA  CLOUDY    44  42  93 NW7       29.89S FOG
DAVENPORT IA   CLOUDY    54  52  93 S5        29.82S
CHICAGO IL     CLOUDY    60  54  80 S6        29.81F
EAU CLAIRE WI  CLOUDY    38  36  92 NE7       29.91F
LA CROSSE WI   CLOUDY    40  39  97 N8        29.89F FOG
$$

  *****  SOME NATIONAL WEATHER *****

CITY           SKY/WX    TMP DP  RH WIND       PRES   REMARKS
LA GUARDIA NY  CLOUDY    41  33  73 NE16      30.47F
RALEIGH NC     PTSUNNY   72  52  49 VRB6      30.23F
ATLANTA GA     PTSUNNY   71  57  61 S10       30.12F
NEW ORLEANS LA FAIR      77  68  73 SE6       30.05S
OKLAHOMA CITY  CLOUDY    67  48  50 SE22G28   29.83F
ALBUQUERQUE NM PTSUNNY   51  30  44 NE5       29.97S
SALT LAKE CITY FAIR      46  36  68 S8        30.06S
LOS ANGELES CA PTSUNNY   61  53  75 CALM      30.08R
BOISE ID       FAIR      51  30  44 SE20G25   29.91F
SEATTLE WA     LGT RAIN  44  41  89 S5        29.85R
$$

*** WEATHER ACROSS MANITOBA...SASKATCHEWAN AND ONTARIO ***
                ***ONTARIO***

CITY           SKY/WX    TMP DP  RH WIND       PRES   REMARKS
GERALDTON      PTSUNNY   34  19  55 SE6       30.01F
THUNDER BAY    LGT RAIN  34  34 100 NE8       30.01F
SIOUX LOOKOUT  CLOUDY    36  28  75 VRB2      29.96F
TORONTO        CLOUDY    37  34  87 E12G21    30.15F
BIG TROUT LK   CLOUDY    36  25  64 S10       29.86F
PICKLE LAKE    PTSUNNY   37  25  60 S9        29.93F
DRYDEN         CLOUDY    34  30  86 S5        29.96F
KENORA         CLOUDY    34  32  93 SW8       29.95F
$$
                *** MANITOBA***

CITY           SKY/WX    TMP DP  RH WIND       PRES   REMARKS
BRANDON        MOSUNNY   39  34  81 E8        29.95R
DAUPHIN        PTSUNNY   39  34  81 VRB2      29.96S
ISLAND LAKE    CLOUDY    30  25  80 W13       29.89R WCI  20
PILOT MOUND      N/A     39  34  81 N6          N/A
THE PAS        CLOUDY    21  16  79 N5        29.99S WCI  15
THOMPSON       CLOUDY    21  18  86 NW12      29.90R WCI   9
WINNIPEG       PTSUNNY   39  36  87 N8        29.96R
LYNN LAKE      MOSUNNY   21  18  86 N5        29.95R WCI  15
CHURCHILL      FLURRIES  14  10  85 NE18      29.96S WCI  -3
GILLAM         LGT SNOW  27  23  86 N7        29.81R WCI  19
$$
                ***SASKATCHEWAN***

CITY           SKY/WX    TMP DP  RH WIND       PRES   REMARKS
ESTEVAN        MOSUNNY   50  39  66 S5        29.89F
KINDERSLEY     FOG       30  30 100 E9        29.85R VSB 3/8 WCI  22
LLOYDMINSTER   MOSUNNY   32  32 100 S8        29.87S FOG     WCI  25
PRINCE ALBERT  CLOUDY    30  27  86 E5        29.94R
REGINA         LGT RAIN  43  30  61 W3        29.88R
YORKTON        CLOUDY    37  34  87 SE9       29.90S
N. BATTLEFORD  MOSUNNY   36  32  87 E12       29.91S
LA RONGE       CLOUDY    25  19  80 NE6       29.98R WCI  18
SASKATOON      CLOUDY    32  30  93 E12       29.90R WCI  23
SWIFT CURRENT  SUNNY     46  21  36 W16G23    29.83S
$$
NOTE: THESE ARE AUTOMATED STATIONS WITH LIMITED QUALITY CONTROL
      "FAIR" INDICATES FEW OR NO CLOUDS BELOW 12,000 FEET WITH NO
      SIGNIFICANT WEATHER AND/OR OBSTRUCTIONS TO VISIBILITY.
      SKY/WX - SKY CONDITION AND SIGNIFICANT WEATHER.
      TMP - AIR TEMPERATURE.    DP   - DEWPOINT TEMPERATURE.
      RH  - RELATIVE HUMIDITY.  PRES - PRESSURE.
      HX  - HEAT INDEX.         WCI  - WIND CHILL INDEX.
$



USA.gov is the U.S. government's official web portal to all federal, state and local government web resources and services.